Location: Peebles
(55.6412°N, 3.1714°W)
Time: 22:50:44
(UTC+00:00)

Altair 2 - Visible Passes

Search period start: 20 February 2024 00:00
Search period end: 01 March 2024 00:00
Orbit: 702 x 2526 km, 96.4° (Epoch: 20 February)

Date Brightness Start Highest point End Pass type
(mag) Time Alt. Az. Time Alt. Az. Time Alt. Az.
20 Feb 10.5 00:48:38 10° NNE 01:00:33 46° NW 01:03:41 41° W visible
20 Feb 11.2 02:45:27 10° NNE 02:54:19 24° NNW 03:02:18 14° WNW visible
20 Feb 11.4 04:40:11 10° NNE 04:46:48 18° N 04:54:06 10° NW visible
20 Feb 11.2 06:31:55 10° ENE 06:39:18 23° NNE 06:48:06 10° NNW visible
20 Feb 11.2 18:43:20 10° NNE 18:46:48 11° NE 18:50:18 10° ENE visible
20 Feb 10.4 20:37:18 10° NNE 20:49:09 34° ENE 20:49:48 34° E visible
20 Feb 9.8 22:34:25 10° NNE 22:47:59 79° E 22:48:25 79° ESE visible
21 Feb 10.4 00:31:46 10° NNE 00:44:06 51° NW 00:47:01 45° W visible
21 Feb 11.1 02:28:41 10° NNE 02:38:04 26° NNW 02:45:37 16° WNW visible
21 Feb 11.4 04:23:45 10° NNE 04:30:37 18° N 04:38:08 10° NW visible
21 Feb 11.2 06:15:39 10° ENE 06:23:00 22° NNE 06:31:37 10° NNW visible
21 Feb 10.5 20:20:33 10° NNE 20:31:56 30° ENE 20:33:08 30° E visible
21 Feb 9.8 22:17:34 10° NNE 22:31:12 72° E 22:31:44 72° ESE visible
22 Feb 10.3 00:14:55 10° NNE 00:27:37 56° WNW 00:30:21 50° W visible
22 Feb 11.1 02:11:54 10° NNE 02:21:48 28° NW 02:28:58 18° WNW visible
22 Feb 11.4 04:07:16 10° NNE 04:14:26 18° N 04:22:14 10° NW visible
22 Feb 11.3 05:59:24 10° ENE 06:06:45 21° NNE 06:15:11 10° NNW visible
22 Feb 10.6 20:03:50 10° NNE 20:14:40 26° ENE 20:16:27 26° E visible
22 Feb 9.8 22:00:44 10° NNE 22:14:22 65° E 22:15:04 65° ESE visible
22 Feb 10.1 23:58:05 10° NNE 00:11:07 61° WNW 00:13:41 55° W visible
23 Feb 11.0 01:55:07 10° NNE 02:05:31 30° NW 02:12:17 20° WNW visible
23 Feb 11.4 03:50:45 10° NNE 03:58:15 19° N 04:06:22 10° NW visible
23 Feb 11.4 05:43:11 10° ENE 05:50:30 20° NNE 05:58:47 10° NNW visible
23 Feb 10.7 19:47:10 10° NNE 19:57:18 23° ENE 19:59:47 22° ENE visible
23 Feb 9.9 21:43:54 10° NNE 21:57:29 59° E 21:58:24 58° ESE visible
23 Feb 10.0 23:41:14 10° NNE 23:54:34 67° WNW 23:57:00 60° WSW visible
24 Feb 10.9 01:38:20 10° NNE 01:49:12 33° NW 01:55:36 23° W visible
24 Feb 11.4 03:34:12 10° NNE 03:42:05 20° NNW 03:50:32 10° NW visible
24 Feb 11.4 05:26:58 10° NE 05:34:17 20° NNE 05:42:28 10° NNW visible
24 Feb 10.8 19:30:33 10° NNE 19:39:52 20° ENE 19:43:06 19° ENE visible
24 Feb 10.0 21:27:06 10° NNE 21:40:33 53° E 21:41:42 52° ESE visible
24 Feb 9.9 23:24:24 10° NNE 23:38:00 73° WNW 23:40:19 64° WSW visible
25 Feb 10.8 01:21:33 10° NNE 01:32:53 36° NW 01:38:55 26° W visible
25 Feb 11.4 03:17:37 10° NNE 03:25:54 21° NNW 03:34:42 10° WNW visible
25 Feb 11.5 05:10:45 10° NE 05:18:05 19° N 05:26:12 10° NNW visible
25 Feb 10.9 19:14:01 10° NNE 19:22:22 18° NE 19:26:24 16° ENE visible
25 Feb 10.1 21:10:18 10° NNE 21:23:33 47° E 21:25:01 46° E visible
25 Feb 9.9 23:07:34 10° NNE 23:21:23 80° WNW 23:23:37 69° SW visible
26 Feb 10.7 01:04:46 10° NNE 01:16:32 39° NW 01:22:14 29° W visible
26 Feb 11.4 03:01:00 10° NNE 03:09:44 22° NNW 03:18:52 10° WNW visible
26 Feb 11.5 04:54:31 10° NE 05:01:55 19° N 05:09:59 10° NNW visible
26 Feb 11.0 18:57:37 10° NNE 19:04:47 15° NE 19:09:42 13° ENE visible
26 Feb 10.2 20:53:31 10° NNE 21:06:28 42° E 21:08:19 41° E visible
26 Feb 9.8 22:50:45 10° NNE 23:04:43 87° WNW 23:06:55 71° SSW visible
27 Feb 10.6 00:47:58 10° NNE 01:00:10 43° NW 01:05:32 32° W visible
27 Feb 11.3 02:44:23 10° NNE 02:53:32 23° NNW 03:03:02 10° WNW visible
27 Feb 11.5 04:38:15 10° NE 04:45:45 19° N 04:53:50 10° NNW visible
27 Feb 11.2 06:29:36 10° E 06:38:14 27° NNE 06:48:18 10° NNW visible
27 Feb 11.1 18:41:28 10° NNE 18:47:06 13° NE 18:52:40 10° ENE visible
27 Feb 10.3 20:36:45 10° NNE 20:49:20 37° ENE 20:51:37 36° E visible
27 Feb 9.7 22:33:56 10° NNE 22:48:01 86° ESE 22:50:13 71° S visible
28 Feb 10.5 00:31:11 10° NNE 00:43:46 47° NW 00:48:49 35° W visible
28 Feb 11.3 02:27:43 10° NNE 02:37:19 25° NNW 02:47:10 10° WNW visible
28 Feb 11.5 04:21:59 10° NE 04:29:36 19° N 04:37:44 10° NW visible
28 Feb 11.3 06:13:23 10° ENE 06:21:58 25° NNE 06:31:46 10° NNW visible
28 Feb 11.2 18:25:51 10° NNE 18:29:21 11° NE 18:32:49 10° ENE visible
28 Feb 10.4 20:20:02 10° NNE 20:32:08 33° ENE 20:34:53 31° E visible
28 Feb 9.7 22:17:08 10° NNE 22:31:16 78° E 22:33:30 68° SSE visible
29 Feb 10.4 00:14:23 10° NNE 00:27:20 51° NW 00:32:06 39° W visible
29 Feb 11.2 02:11:04 10° NNE 02:21:06 27° NNW 02:30:43 11° WNW visible
29 Feb 11.5 04:05:40 10° NE 04:13:28 19° N 04:21:40 10° NW visible
29 Feb 11.4 05:57:12 10° ENE 06:05:42 24° NNE 06:15:15 10° NNW visible
29 Feb 10.5 20:03:19 10° NNE 20:14:51 29° ENE 20:18:10 27° E visible
29 Feb 9.7 22:00:20 10° NNE 22:14:27 71° E 22:16:47 63° SE visible
